Regional Weather Roundup
Issued by NWS Sioux Falls, SD

Home | Current Version | Previous Version | Text Only | Print | Product List | Glossary On
Versions: 1 2 3 4 5 6 7 8 9 10 11 12 13 14 15 16 17 18 19 20 21 22 23 24 25 26 27 28 29 30 31 32 33 34 35 36 37 38 39 40 41 42 43 44 45 46 47 48 49 50
000
ASUS43 KFSD 051310
RWRFSD

WEATHER ROUNDUP FOR SE SOUTH DAKOTA/SW MINNESOTA/NW IOWA
NATIONAL WEATHER SERVICE SIOUX FALLS SD
700 AM CST THU MAR 05 2015

NOTE: "FAIR" INDICATES FEW OR NO CLOUDS BELOW 12,000 FEET WITH NO
SIGNIFICANT WEATHER AND OR OBSTRUCTIONS TO VISIBILITY.


SDZ038>040-050-052>070-051400-
SOUTHEAST SOUTH DAKOTA

CITY           SKY/WX    TMP DP  RH WIND       PRES   REMARKS
CHAMBERLAIN    PTCLDY    -8 -13  81 CALM      30.34S
HURON          MOCLDY    -6 -12  75 S8        30.41F WCI -21
MADISON        FAIR      -9 -13  84 S6        30.39S WCI -23
MITCHELL       MOCLDY    -5 -10  79 S8        30.44S WCI -20
SIOUX FALLS    MOCLDY    -8 -14  74 CALM      30.45R
WINNER         FAIR       7  -3  64 SW15      30.30F WCI -10
YANKTON        PTCLDY    -6  -9  84 CALM      30.48S
$$

MNZ071-072-080-081-089-090-097-098-051400-
SOUTHWEST MINNESOTA

CITY           SKY/WX    TMP DP  RH WIND       PRES   REMARKS
FAIRMONT       CLEAR     -6 -11  77 W3        30.46R
JACKSON        CLEAR     -8 -15  71 W5        30.45R WCI -19
LUVERNE        MOCLDY    -9 -15  77 CALM      30.46S
MARSHALL       MOCLDY    -9 -17  70 SW5       30.45S WCI -21
MONTEVIDEO     MOCLDY    -9 -15  77 W5        30.47S WCI -21
PIPESTONE      PTCLDY   -15 -18  84 SW3       30.40R
REDWOOD FALLS  PTCLDY    -8 -14  74 W5        30.48R WCI -19
TRACY          PTCLDY    -8 -15  73 SW6       30.45S WCI -22
WINDOM         FAIR      -9 -15  77 CALM      30.44S
WORTHINGTON    PTCLDY    -9 -15  77 W3        30.45R
$$

IAZ001>003-012>014-020>022-031-032-NEZ013-014-SDZ071-051400-
NORTHWEST IOWA

CITY           SKY/WX    TMP DP  RH WIND       PRES   REMARKS
CHEROKEE       CLEAR    -10 -14  82 CALM      30.50S
DENISON        CLEAR     -6 -11  77 E3        30.49S
ESTHERVILLE    CLEAR     -7 -12  79 W7        30.46R WCI -21
LE MARS        CLEAR     -8 -11  84 CALM      30.51S
ORANGE CITY    PTCLDY    -6 -11  77 CALM      30.46S
SHELDON        PTCLDY    -9 -15  77 CALM      30.46S
SIOUX CITY     PTCLDY    -2  -7  79 CALM      30.52R
SPENCER        CLEAR     -8 -14  74 W6        30.48R WCI -21
STORM LAKE     CLEAR     -6 -13  71 NW6       30.47S WCI -18
$$

ABBREVIATIONS USED IN REMARKS
   TC - TEMPERATURE IN CELSIUS
  WCI - WIND CHILL INDEX
   HX - HEAT INDEX
  VSB - VISIBILITY




USA.gov is the U.S. government's official web portal to all federal, state and local government web resources and services.